Regional Weather Roundup
Issued by NWS Charleston, WV

Home | Current Version | Previous Version | Text Only | Print | Product List | Glossary On
Versions: 1 2 3 4 5 6 7 8 9 10 11 12 13 14 15 16 17 18 19 20 21 22 23 24 25 26 27 28 29 30 31 32 33 34 35 36 37 38 39 40 41 42 43 44 45 46 47 48 49 50
000
ASUS41 KRLX 311810
RWRRLX
West Virginia Regional Weather Roundup
National Weather Service Charleston WV
200 PM EDT THU JUL 31 2014

Note: "fair" indicates few or no clouds below 12,000 feet with no
significant weather and/or obstructions to visibility.

WVZ003-311900-
Northern Panhandle of West Virginia

CITY           SKY/WX    TMP DP  RH WIND       PRES   REMARKS
WHEELING       PTSUNNY   73  60  63 SW10G17   30.10F
$$

WVZ009-311900-
Northwest West Virginia

CITY           SKY/WX    TMP DP  RH WIND       PRES   REMARKS
PARKERSBURG    PTSUNNY   79  62  56 W9        30.14S
$$

WVZ006-311900-
Western West Virginia

CITY           SKY/WX    TMP DP  RH WIND       PRES   REMARKS
HUNTINGTON     MOSUNNY   79  59  50 VRB7      30.11S
$$

WVZ015-311900-
West Central West Virginia

CITY           SKY/WX    TMP DP  RH WIND       PRES   REMARKS
CHARLESTON     MOSUNNY   79  59  50 VRB5      30.12F
$$

WVZ031-311900-
North Central West Virginia

CITY           SKY/WX    TMP DP  RH WIND       PRES   REMARKS
CLARKSBURG     PTSUNNY   77  59  53 SW12      30.13S
MORGANTOWN     MOSUNNY   77  57  50 VRB7G17   30.13F
$$

WVZ035-042-045-311900-
South Central West Virginia

CITY           SKY/WX    TMP DP  RH WIND       PRES   REMARKS
BECKLEY        MOSUNNY   76  50  40 SW7       30.19F
BLUEFIELD      PTSUNNY   77  53  43 SW6       30.21F
LEWISBURG      MOSUNNY   78  46  32 W6        30.19S
$$

WVZ047-311900-
Northern Mountains of West Virginia

CITY           SKY/WX    TMP DP  RH WIND       PRES   REMARKS
ELKINS         PTSUNNY   77  54  44 W7        30.16F
$$

WVZ052-311900-
Eastern Panhandle of West Virginia

CITY           SKY/WX    TMP DP  RH WIND       PRES   REMARKS
MARTINSBURG    MOSUNNY   83  54  36 VRB5      30.11S
PETERSBURG     SUNNY     83  51  32 SW3       30.11F
$$


USA.gov is the U.S. government's official web portal to all federal, state and local government web resources and services.